Погода в Айямонте

Испания     37°13′05″N   7°23′41″W
темп.,
°C
ветер,
м/с
пор.,
м/с
влажн.,
%
обл.,
%
осадки,
мм/ч
давл.,
гПа
погр.,
м
24 мая, вт
вт2423:00+21ссз8134241 0.0 1013536
02:00+15ссз81463100 0.0 1013373
05:00+13ссз916705 0.0 1014459
08:00+12ссз815780 0.0 1014466
11:00+19ссз1012420 0.0 10151026
14:00+26ссз89209 0.0 10141786
17:00+27ссз91018100 0.0 10122246
20:00+23ссз81023100 0.0 10131596
25 мая, ср
ср2523:00+17ссз9155184 0.0 1016543
02:00+14ссз81566100 0.0 1016437
05:00+13ссз81575100 0.0 1017370
08:00+12ссз7137497 0.0 1018312
11:00+20с6741100 0.0 1018578
14:00+25всв232572 0.0 10181985
17:00+28ююз241934 0.0 10162459
20:00+26юз562637 0.0 1016739
26 мая, чт
чт2623:00+21сз343030 0.0 101755
02:00+19св33354 0.0 101826
05:00+15ссв22455 0.0 101817
08:00+16с22490 0.0 101920
11:00+25всв56254 0.0 1019886
14:00+29вюв67195 0.0 10181979
17:00+30ююв55195 0.0 10171535
20:00+26ююз67305 0.0 1017408
27 мая, пт
пт2723:00+19юз34480 0.0 101948
02:00+18ююз22595 0.0 101916
05:00+16зсз12745 0.0 101811
08:00+17ссв22635 0.0 101832
11:00+25в463216 0.0 1018640
14:00+29юв672633 0.0 1018988
17:00+30ююв55255 0.0 10161017
20:00+26ю57343 0.0 1015442
28 мая, сб
сб2823:00+20ююз12555 0.0 101715
02:00+17сз11685 0.0 101611
05:00+16сз11810 0.0 101411
08:00+17св11691 0.0 101411
11:00+25юв68383 0.0 1014797
14:00+27ююв68403 0.0 1014834
17:00+27ююз56380 0.0 1012733
20:00+25ююз55360 0.0 1011470